Gallup, NM

12:32 AM MDT on April 30, 2017 (GMT -0600)
Gallup Municipal

Weather History for KGUP - May, 2013

Change the Weather History Date:

Tuesday, May 7, 2013

  Actual Average Record
Temperature  
Mean Temperature 52 °F -  
Max Temperature 70 °F 70 °F 89 °F (1997)
Min Temperature 35 °F 31 °F 12 °F (1975)
Degree Days  
Heating Degree Days 14    
Growing Degree Days 2 (Base 50)    
Moisture  
Dew Point 22 °F    
Average Humidity 34    
Maximum Humidity 70    
Minimum Humidity 16    
Precipitation  
Precipitation 0.00 in - - ()
Sea Level Pressure  
Sea Level Pressure 29.81 in    
Wind  
Wind Speed 8 mph (SW)    
Max Wind Speed 23 mph    
Max Gust Speed 31 mph    
Visibility 10 miles    
Events      
Averages and records for this station are not official NWS values.
T = Trace of Precipitation, MM = Missing Value Source: NWS Daily Summary

Daily Weather History Graph

Daily Weather History Graph

Search for Another Location

Airport or City:

Trip Planner

Search our weather history database for the weather conditions in past years. The results will help you decide how hot, cold, wet, or windy it might be!

Date:

Astronomy

May. 07, 2013 Rise Set
Actual Time 6:17 AM MDT 8:06 PM MDT
Civil Twilight 5:49 AM MDT 8:34 PM MDT
Nautical Twilight 5:15 AM MDT 9:08 PM MDT
Astronomical Twilight 4:40 AM MDT 9:44 PM MDT
Moon 4:48 AM MDT (5/7) 6:12 PM MDT (5/7)
Length of Visible Light 14h 45m
Length of Day
13h 49m
Waning Crescent, 5% of the Moon is Illuminated
May 7
Waning Crescent
May 9
New
May 17
First Quarter
May 24
Full
May 31
Last Quarter

Hourly Weather History & Observations

Time (MDT) Temp. Windchill Dew Point Humidity Pressure Visibility Wind Dir Wind Speed Gust Speed Precip Events Conditions
12:53 AM 43.0 °F - 28.9 °F 58% 29.91 in 10.0 mi Calm Calm - N/A   Clear
2:53 AM 36.0 °F 33.3 °F 26.1 °F 67% 29.92 in 10.0 mi ENE 3.5 mph - N/A   Clear
3:53 AM 37.0 °F 33.3 °F 27.0 °F 67% 29.89 in 10.0 mi NE 4.6 mph - N/A   Scattered Clouds
4:53 AM 37.0 °F 34.5 °F 27.0 °F 67% 29.88 in 10.0 mi ENE 3.5 mph - N/A   Mostly Cloudy
5:53 AM 35.1 °F - 26.1 °F 70% 29.91 in 10.0 mi Calm Calm - N/A   Partly Cloudy
6:53 AM 36.0 °F - 26.1 °F 67% 29.92 in 10.0 mi Calm Calm - N/A   Clear
7:53 AM 46.0 °F - 30.0 °F 54% 29.89 in 10.0 mi Calm Calm - N/A   Clear
8:53 AM 53.1 °F - 32.0 °F 45% 29.84 in 10.0 mi WSW 12.7 mph 19.6 mph N/A   Clear
9:53 AM 57.0 °F - 19.0 °F 23% 29.82 in 10.0 mi WSW 15.0 mph - N/A   Clear
10:53 AM 60.1 °F - 18.0 °F 20% 29.81 in 10.0 mi SW 15.0 mph 25.3 mph N/A   Clear
11:53 AM 62.1 °F - 15.1 °F 16% 29.80 in 10.0 mi WSW 21.9 mph 28.8 mph N/A   Clear
12:53 PM 64.0 °F - 18.0 °F 17% 29.80 in 10.0 mi SW 23.0 mph 28.8 mph N/A   Clear
1:53 PM 64.9 °F - 18.0 °F 16% 29.81 in 10.0 mi SSW 16.1 mph 27.6 mph N/A   Clear
2:53 PM 66.9 °F - 19.9 °F 17% 29.79 in 10.0 mi SW 19.6 mph 26.5 mph N/A   Clear
3:53 PM 68.0 °F - 21.0 °F 17% 29.74 in 10.0 mi SW 11.5 mph 27.6 mph N/A   Scattered Clouds
4:53 PM 68.0 °F - 21.0 °F 17% 29.71 in 10.0 mi WSW 15.0 mph 24.2 mph N/A   Partly Cloudy
5:53 PM 68.0 °F - 19.9 °F 16% 29.72 in 10.0 mi SW 20.7 mph 31.1 mph N/A   Scattered Clouds
6:53 PM 63.0 °F - 19.0 °F 18% 29.75 in 10.0 mi WSW 19.6 mph 29.9 mph N/A   Partly Cloudy
7:53 PM 60.1 °F - 21.0 °F 22% 29.73 in 10.0 mi WSW 13.8 mph - N/A   Partly Cloudy
8:53 PM 57.9 °F - 19.0 °F 22% 29.69 in 10.0 mi WSW 17.3 mph 25.3 mph N/A   Clear
9:53 PM 55.0 °F - 19.0 °F 24% 29.72 in 10.0 mi WSW 13.8 mph - N/A   Scattered Clouds
10:53 PM 54.0 °F - 18.0 °F 24% 29.72 in 10.0 mi WSW 13.8 mph - N/A   Mostly Cloudy
11:53 PM 48.0 °F - 17.1 °F 29% 29.75 in 10.0 mi SSW 4.6 mph - N/A   Mostly Cloudy